Wind_Speed
21 24 27 31 36 40 44 50 56 59 60 60 61 60 58 53 49 49 47 38 37 37 36 36 37 38 39 39 41 45 49 51 47 41 42 45 45 48 53 63 55 53 55
20 25 31 36 41 47 52 57 60 61 60 60 59 55 52 50 50 52 53 46 39 39 39 40 41 40 41 39 38 41 43 50 52 46 48 45 42 42 45 58 60 49 45
27 30 35 39 46 53 57 61 62 62 59 56 52 46 46 49 51 51 50 47 47 44 43 43 44 43 42 41 38 38 42 43 46 48 45 46 46 40 47 40 54 62 52
29 35 42 47 52 56 58 60 60 57 54 51 48 47 51 51 47 46 46 47 48 49 46 41 42 43 42 38 37 38 43 38 42 44 46 49 47 45 45 45 44 54 65
33 37 43 50 55 57 60 57 52 46 45 45 46 46 45 45 44 45 46 46 45 45 45 42 37 37 36 34 33 35 42 33 32 40 43 47 51 51 54 52 48 47 52
36 42 48 53 56 58 55 54 49 40 38 40 43 41 43 42 45 48 47 45 46 46 42 35 30 28 31 28 27 27 33 38 32 34 38 40 40 45 49 45 35 33 32
42 46 52 57 58 57 57 53 45 40 38 38 42 40 39 42 48 48 46 46 46 43 37 34 31 28 26 24 24 24 26 31 32 34 34 37 38 38 46 43 38 35 35
44 49 54 55 54 55 53 46 35 34 34 35 38 36 39 44 47 46 46 46 43 40 38 34 31 27 26 25 25 23 22 24 27 29 34 36 38 38 40 42 39 39 39
46 49 50 50 52 51 47 38 31 32 32 34 34 36 41 45 45 45 45 42 39 36 36 34 31 28 25 24 23 21 17 12 12 10 27 33 36 37 40 41 39 45 41
45 46 46 48 48 46 40 31 30 34 36 32 34 40 44 43 43 43 42 39 36 34 34 32 30 28 26 24 22 18 15 15 3 2 9 22 28 30 35 38 38 40 40
43 42 43 42 41 41 34 32 34 33 33 34 38 41 43 43 42 42 39 37 35 34 33 32 30 27 26 22 19 16 11 11 4 1 4 7 8 16 16 30 30 34 37
39 39 37 34 33 32 32 32 33 34 37 41 41 42 42 41 41 38 36 34 33 31 31 30 26 23 23 18 11 9 8 8 4 5 2 8 7 11 13 9 14 19 21
36 33 29 28 27 33 35 35 36 38 39 41 41 41 40 39 37 34 32 30 29 30 30 32 29 31 30 28 23 19 16 9 11 5 3 1 2 5 8 12 12 14 17
31 27 27 25 29 33 34 36 36 36 37 38 39 38 37 36 33 31 29 29 29 30 30 31 33 34 34 34 31 26 22 22 20 14 5 2 3 1 3 6 7 11 14
27 26 26 28 31 34 35 35 35 36 36 36 35 35 32 30 30 30 28 28 28 29 29 28 27 26 27 26 23 27 26 20 20 20 18 11 4 4 4 3 6 8 9
27 25 26 29 32 34 33 34 36 36 35 34 32 29 28 29 30 28 28 28 27 27 28 28 29 29 27 26 24 20 20 21 21 16 15 16 17 14 10 7 4 6 10
25 25 27 30 33 32 33 34 34 34 32 30 27 27 29 29 29 28 27 25 27 28 28 28 28 29 29 29 29 27 25 22 19 16 14 12 12 12 10 11 13 12 3
24 24 26 29 30 30 32 33 31 29 26 26 27 27 27 27 27 26 27 27 26 26 27 27 29 29 29 29 29 28 26 24 21 18 16 13 11 10 8 8 8 7 6
23 23 26 29 29 30 30 29 26 23 26 27 25 26 26 26 26 25 26 28 29 30 31 30 29 29 29 29 28 27 24 23 20 19 17 15 13 12 10 9 7 6 4
21 22 25 26 26 28 25 23 20 22 25 25 25 25 25 25 26 27 28 30 31 31 31 31 32 32 31 31 31 30 30 26 24 22 18 16 12 11 10 10 10 9 7
20 21 23 22 24 24 19 19 21 22 23 24 25 25 26 27 28 29 29 29 29 28 27 29 30 29 30 30 30 30 30 30 30 27 24 21 18 16 14 14 12 11 11
19 21 20 21 23 19 15 19 19 20 21 21 22 24 25 26 27 27 27 27 25 24 24 26 26 27 29 29 28 29 29 28 26 26 26 25 24 22 20 18 17 17 17
18 19 18 20 20 15 15 17 18 19 18 20 22 23 24 24 24 24 25 24 22 20 20 22 24 25 27 27 27 28 28 28 27 27 27 26 24 22 21 19 18 17 15
17 16 17 19 17 12 15 16 17 17 16 19 20 21 21 22 23 23 22 22 20 19 19 20 22 25 26 26 27 25 28 29 28 28 27 26 25 24 22 20 18 17 16
14 15 17 17 11 10 12 13 14 15 15 18 20 20 21 22 23 24 24 25 24 24 24 23 23 24 28 31 32 29 28 28 27 25 24 23 22 21 20 20 19 17 16
13 15 16 11 7 9 9 11 13 13 15 19 18 20 24 25 25 25 26 27 28 28 26 25 26 27 30 31 31 29 27 26 25 23 23 24 23 22 21 20 19 17 16
Wind_Direction
332 332 328 327 327 324 323 326 328 328 327 324 322 323 326 328 326 323 325 319 312 310 306 302 298 292 285 275 268 260 256 259 262 262 252 257 262 253 247 253 254 256 252
316 321 324 324 319 322 326 328 327 325 323 324 326 329 327 325 322 321 322 320 314 313 308 304 298 301 295 284 274 267 261 252 253 252 257 259 265 258 252 256 253 248 244
317 315 316 318 321 324 324 325 324 324 325 325 326 323 317 316 315 316 317 319 320 319 314 307 304 302 300 294 283 270 262 254 246 247 243 252 260 262 255 263 245 244 244
312 316 322 326 327 329 328 324 323 323 322 321 320 316 317 319 320 323 325 324 324 324 320 313 304 304 302 295 288 275 262 261 251 242 243 237 241 250 259 260 257 245 245
324 328 326 325 329 326 324 325 324 320 317 318 318 325 328 329 332 331 328 327 326 325 323 318 309 305 302 291 277 271 267 263 266 256 245 242 238 246 243 256 263 255 243
319 320 322 326 324 325 328 329 327 325 320 318 324 331 330 331 331 330 329 329 328 326 324 320 314 310 309 296 283 282 273 261 267 258 254 252 250 237 249 254 255 260 269
316 319 324 326 329 332 334 331 330 333 326 330 329 331 327 332 330 332 332 331 332 332 329 327 326 319 317 310 302 295 291 268 261 255 250 250 248 243 238 247 252 244 243
323 326 328 331 334 337 335 332 325 332 333 336 336 332 333 332 333 333 335 336 335 334 329 327 329 327 323 312 305 299 291 260 267 250 246 244 247 247 246 238 238 249 246
326 330 333 336 340 343 342 341 344 332 334 336 337 338 334 334 334 338 338 337 336 333 330 329 330 325 322 322 314 299 291 273 226 231 243 240 246 246 246 248 242 238 242
332 335 339 344 350 354 356 357 345 345 341 334 332 334 336 336 340 340 339 340 339 336 333 332 331 328 328 324 315 310 304 285 258 157 221 236 242 243 245 245 243 245 240
336 341 346 350 352 353 357 351 343 343 343 342 337 339 339 342 342 343 343 344 345 341 339 340 335 334 330 323 319 309 310 306 295 86 251 238 237 244 248 245 248 245 242
340 345 347 348 351 360 360 353 349 345 343 341 341 341 343 342 344 346 347 350 351 354 356 354 355 359 345 345 327 306 309 300 33 54 266 271 255 252 253 251 228 233 236
342 344 345 351 354 355 350 344 340 341 343 343 343 343 344 346 350 353 359 0 2 7 9 12 15 15 17 16 25 33 30 20 32 44 46 20 259 234 221 222 236 237 236
339 344 353 356 350 343 344 344 342 346 347 345 344 346 348 354 359 4 8 10 10 9 9 11 10 11 15 13 17 25 35 29 34 36 35 305 280 242 197 211 239 254 258
339 345 352 348 347 344 343 346 348 346 345 346 349 352 357 1 7 6 5 9 9 10 10 12 13 15 12 14 17 22 20 29 33 27 24 31 32 202 188 171 207 225 238
338 339 340 345 346 345 348 350 348 345 347 352 357 1 3 1 359 360 3 5 8 12 15 13 14 17 16 21 25 28 19 20 22 26 28 25 21 27 38 48 163 195 219
335 337 341 345 346 345 349 348 350 350 353 360 2 1 359 360 359 0 7 12 14 17 17 17 16 16 14 15 17 20 22 22 18 19 21 20 12 13 27 35 28 20 353
334 338 341 344 344 345 351 349 355 357 1 1 357 358 360 2 4 9 11 17 24 26 24 21 20 19 16 13 12 12 11 13 9 12 16 17 15 13 18 26 26 21 13
331 337 341 344 343 347 353 354 2 1 360 352 358 2 5 9 12 17 22 22 20 19 22 24 24 21 19 17 17 16 13 12 8 12 10 9 9 6 16 28 29 28 12
331 335 341 342 344 347 357 2 5 359 355 353 2 9 13 16 20 23 23 23 21 21 22 21 21 23 28 30 32 32 30 26 25 21 17 16 17 21 23 24 22 17 15
330 334 339 342 344 349 4 9 1 358 358 1 9 15 17 21 23 23 21 21 21 22 24 23 25 29 29 29 32 34 37 39 41 40 40 39 39 38 37 35 32 30 27
328 332 338 340 343 349 359 2 0 359 2 6 18 21 22 22 22 23 22 22 22 24 26 27 27 26 25 24 28 30 33 34 37 39 41 43 43 43 42 36 31 28 24
326 331 334 336 340 345 354 2 4 3 9 15 24 23 24 25 24 23 22 22 22 22 25 26 26 25 23 21 21 24 26 26 28 30 30 29 28 26 24 21 20 17 12
324 328 329 334 338 345 354 5 8 5 14 25 29 29 29 28 27 26 27 27 25 26 27 26 25 26 27 27 24 25 26 24 25 24 22 19 16 13 12 11 10 10 12
321 323 327 334 341 351 354 10 14 8 19 31 31 29 32 32 30 27 27 27 27 27 27 25 25 25 25 24 23 25 24 23 23 20 19 18 16 15 13 12 11 11 12
316 319 324 332 350 356 357 24 20 14 23 33 31 33 33 30 27 28 28 26 26 26 24 22 21 22 22 21 20 22 22 20 20 19 20 18 17 17 17 15 12 10 10
Height
3167 3165 3161 3157 3153 3149 3144 3137 3129 3122 3115 3109 3101 3095 3088 3082 3076 3071 3067 3061 3055 3048 3042 3037 3032 3029 3025 3024 3023 3021 3020 3023 3025 3024 3023 3025 3025 3023 3027 3036 3041 3045 3049
3167 3163 3159 3154 3149 3143 3136 3129 3122 3114 3108 3101 3094 3088 3081 3074 3067 3059 3053 3049 3045 3038 3031 3026 3020 3015 3011 3010 3008 3006 3004 3005 3008 3008 3011 3009 3010 3009 3012 3020 3027 3033 3036
3162 3159 3156 3150 3144 3137 3130 3122 3114 3106 3098 3091 3085 3080 3074 3067 3059 3052 3044 3037 3031 3025 3018 3013 3008 3003 2999 2994 2993 2991 2988 2988 2994 2994 2998 2999 2997 3002 3002 3003 3008 3018 3023
3161 3156 3150 3144 3138 3131 3124 3115 3106 3098 3089 3083 3076 3069 3062 3054 3047 3040 3033 3026 3019 3011 3006 3000 2995 2990 2986 2982 2978 2976 2974 2973 2976 2979 2983 2985 2988 2991 2991 2991 2995 2999 3006
3156 3151 3145 3140 3132 3124 3117 3106 3097 3089 3082 3075 3069 3062 3054 3048 3040 3034 3027 3020 3012 3004 2996 2990 2984 2978 2974 2969 2965 2963 2962 2962 2964 2964 2967 2971 2973 2978 2979 2980 2983 2984 2990
3152 3148 3142 3135 3128 3118 3109 3098 3089 3081 3075 3068 3061 3055 3049 3042 3035 3027 3019 3011 3005 2997 2989 2982 2975 2969 2964 2959 2955 2953 2951 2951 2953 2954 2955 2957 2961 2967 2970 2971 2972 2975 2980
3148 3143 3136 3128 3119 3109 3099 3090 3082 3076 3068 3063 3057 3050 3044 3037 3030 3021 3012 3005 2997 2989 2982 2975 2968 2962 2957 2952 2948 2945 2942 2941 2942 2944 2946 2948 2950 2955 2960 2962 2965 2968 2975
3144 3138 3131 3122 3113 3104 3094 3084 3078 3072 3066 3060 3053 3046 3040 3033 3024 3016 3007 2999 2990 2983 2976 2969 2962 2956 2951 2946 2942 2938 2935 2932 2932 2933 2936 2938 2941 2945 2949 2953 2955 2960 2966
3141 3134 3125 3117 3107 3098 3088 3080 3076 3071 3064 3057 3051 3045 3038 3029 3020 3012 3003 2995 2987 2979 2972 2964 2957 2952 2946 2941 2936 2933 2930 2928 2925 2923 2927 2929 2931 2935 2938 2942 2947 2952 2957
3135 3128 3119 3110 3102 3094 3087 3081 3077 3069 3064 3057 3050 3042 3034 3026 3017 3008 3000 2992 2984 2975 2969 2960 2954 2947 2941 2935 2931 2928 2925 2924 2918 2917 2919 2921 2922 2925 2929 2932 2936 2940 2945
3129 3121 3113 3107 3100 3094 3088 3081 3075 3069 3063 3055 3046 3038 3030 3022 3013 3004 2996 2988 2980 2973 2966 2958 2951 2944 2938 2932 2928 2924 2922 2920 2915 2912 2914 2915 2915 2917 2919 2923 2926 2930 2933
3124 3116 3110 3106 3102 3094 3085 3078 3073 3066 3059 3051 3043 3035 3027 3019 3010 3002 2994 2987 2980 2973 2965 2957 2950 2942 2935 2929 2925 2922 2918 2917 2913 2910 2911 2911 2911 2912 2914 2916 2919 2922 2924
3120 3116 3111 3104 3097 3090 3085 3077 3071 3063 3056 3049 3041 3033 3024 3015 3007 3000 2993 2987 2981 2974 2966 2959 2951 2943 2936 2929 2922 2919 2916 2915 2910 2909 2909 2910 2909 2909 2909 2911 2914 2916 2918
3120 3114 3106 3100 3095 3090 3083 3075 3068 3060 3053 3046 3039 3030 3022 3013 3006 3000 2995 2989 2982 2975 2967 2960 2954 2947 2940 2933 2927 2922 2918 2916 2911 2908 2908 2908 2909 2908 2907 2909 2911 2912 2913
3117 3111 3104 3098 3093 3087 3080 3073 3064 3057 3050 3043 3036 3029 3021 3014 3008 3002 2996 2990 2984 2976 2969 2962 2958 2952 2945 2937 2932 2926 2922 2918 2914 2912 2910 2908 2907 2907 2907 2907 2907 2908 2909
3113 3109 3103 3096 3090 3084 3077 3070 3062 3056 3049 3042 3035 3029 3023 3016 3010 3004 2997 2990 2984 2979 2972 2965 2959 2953 2948 2942 2937 2932 2927 2921 2919 2916 2914 2912 2910 2908 2905 2905 2905 2906 2906
3108 3104 3098 3092 3086 3080 3074 3068 3060 3054 3048 3042 3036 3030 3023 3017 3011 3004 2998 2992 2985 2979 2973 2967 2962 2955 2949 2943 2938 2932 2927 2924 2922 2918 2916 2913 2912 2909 2908 2906 2904 2903 2902
3105 3101 3095 3090 3084 3079 3071 3065 3058 3053 3048 3042 3036 3030 3024 3018 3012 3005 2999 2992 2988 2984 2978 2971 2964 2958 2953 2946 2940 2934 2930 2926 2923 2920 2917 2915 2913 2911 2909 2907 2906 2905 2905
3101 3097 3093 3088 3083 3076 3068 3063 3057 3054 3049 3045 3037 3031 3025 3019 3013 3007 3001 2995 2988 2983 2977 2972 2968 2963 2957 2951 2944 2938 2934 2928 2925 2921 2918 2915 2913 2912 2910 2909 2908 2907 2905
3099 3094 3090 3086 3082 3075 3068 3062 3058 3055 3050 3045 3038 3031 3026 3020 3014 3008 3002 2996 2991 2985 2980 2975 2969 2964 2960 2955 2949 2943 2937 2933 2927 2923 2921 2918 2916 2913 2912 2910 2909 2907 2905
3096 3092 3088 3084 3079 3073 3067 3062 3058 3056 3050 3045 3038 3033 3027 3021 3015 3010 3005 2999 2994 2989 2985 2980 2975 2970 2965 2960 2954 2949 2944 2938 2933 2930 2926 2922 2919 2917 2914 2912 2910 2908 2905
3091 3088 3085 3082 3076 3071 3067 3062 3059 3055 3050 3045 3038 3033 3028 3023 3018 3013 3008 3003 2999 2994 2990 2985 2980 2975 2970 2965 2959 2954 2949 2944 2940 2935 2931 2927 2924 2921 2918 2915 2912 2908 2906
3087 3084 3082 3079 3074 3070 3067 3062 3058 3055 3051 3047 3040 3036 3031 3026 3022 3017 3012 3007 3003 2998 2994 2989 2983 2978 2973 2967 2962 2957 2952 2947 2942 2937 2933 2929 2926 2923 2919 2916 2913 2910 2907
3085 3082 3080 3077 3073 3069 3067 3062 3059 3057 3053 3047 3043 3038 3033 3029 3024 3020 3015 3010 3006 3001 2996 2992 2987 2982 2977 2972 2965 2960 2955 2950 2945 2940 2936 2932 2928 2924 2920 2917 2914 2910 2907
3082 3081 3077 3074 3071 3069 3067 3063 3060 3058 3054 3049 3044 3041 3036 3031 3026 3022 3017 3012 3007 3002 2997 2993 2989 2984 2979 2973 2966 2961 2957 2953 2948 2944 2940 2935 2931 2927 2922 2918 2914 2910 2907
3080 3078 3075 3072 3071 3069 3067 3063 3061 3059 3056 3050 3047 3042 3037 3032 3028 3024 3019 3014 3008 3003 2999 2994 2990 2985 2980 2975 2970 2965 2961 2956 2952 2948 2942 2938 2933 2928 2923 2918 2914 2911 2907